EW5546 Weather Reports


time (UTC)temp
C
wind
direction
speed
KPH
gust
KPH
rain 1hr
cm
rain 24hr
cm
rain mn
cm
humidity
%
barometer
mb
20260906192543 -17 214 1.6 1.6 0.00 0.00 0.00 1023.1
20260906191540 16 79 1.6 3.2 0.00 0.00 0.00 58 1023.1
20260906190539 16 225 0.0 1.6 0.00 0.00 0.00 59 1023.1
20260906185519 16 0.0 0.0 0.00 0.00 0.00 59 1023.1
20260906184518 16 225 0.0 1.6 0.00 0.00 0.00 59 1023.1
20260906183523 16 225 1.6 3.2 0.00 0.00 0.00 59 1022.8
20260906182526 16 207 1.6 1.6 0.00 0.00 0.00 58 1022.1
20260906181517 16 210 1.6 1.6 0.00 0.00 0.00 58 1022.1
20260906180523 16 242 1.6 3.2 0.00 0.00 0.00 58 1022.1
20260906175547 17 0.0 0.0 0.00 0.00 0.00 57 1022.1
20260906174524 17 248 0.0 3.2 0.00 0.00 0.00 57 1022.1
20260906173703 17 203 0.0 1.6 0.00 0.00 0.00 57 1022.1
20260906172517 17 203 1.6 3.2 0.00 0.00 0.00 56 1022.1
20260906171523 17 225 0.0 1.6 0.00 0.00 0.00 55 1022.1
20260906170526 17 161 1.6 3.2 0.00 0.00 0.00 55 1022.1
20260906165524 17 206 1.6 4.8 0.00 0.00 0.00 55 1022.1
20260906164523 17 212 1.6 1.6 0.00 0.00 0.00 55 1022.1
20260906163523 17 244 1.6 1.6 0.00 0.00 0.00 55 1022.1
20260906162522 17 220 1.6 4.8 0.00 0.00 0.00 55 1022.1
20260906161523 17 203 0.0 1.6 0.00 0.00 0.00 54 1022.1
20260906160603 -17 315 0.0 1.6 0.00 0.00 0.00 1021.7
20260906155523 18 194 1.6 4.8 0.00 0.00 0.00 54 1021.1
20260906154520 18 206 1.6 3.2 0.00 0.00 0.00 53 1021.1
20260906153545 18 183 1.6 6.4 0.00 0.00 0.00 53 1021.1
20260906152524 18 66 4.8 9.7 0.00 0.00 0.00 52 1021.1
20260906151527 18 64 3.2 4.8 0.00 0.00 0.00 52 1021.1
20260906150523 18 203 1.6 3.2 0.00 0.00 0.00 51 1021.1
20260906145625 19 209 4.8 6.4 0.00 0.00 0.00 51 1021.1
20260906144525 19 54 4.8 8.0 0.00 0.00 0.00 49 1021.1
20260906143523 20 233 3.2 3.2 0.00 0.00 0.00 48 1021.1
20260906142518 21 190 3.2 4.8 0.00 0.00 0.00 46 1021.1
20260906141522 21 55 4.8 6.4 0.00 0.00 0.00 46 1020.1
20260906140524 21 233 3.2 8.0 0.00 0.00 0.00 46 1020.1
20260906135543 21 62 3.2 6.4 0.00 0.00 0.00 47 1020.1
20260906134545 20 50 3.2 6.4 0.00 0.00 0.00 48 1020.1
20260906133541 19 215 3.2 4.8 0.00 0.00 0.00 49 1020.1
20260906132524 20 136 4.8 8.0 0.00 0.00 0.00 49 1020.1
20260906131517 20 194 3.2 4.8 0.00 0.00 0.00 49 1020.1
20260906130538 19 123 3.2 4.8 0.00 0.00 0.00 50 1020.1
20260906125543 19 248 3.2 3.2 0.00 0.00 0.00 50 1020.1
20260906124523 18 85 6.4 9.7 0.00 0.00 0.00 51 1020.1
20260906123523 18 258 3.2 6.4 0.00 0.00 0.00 50 1019.9
20260906122523 19 268 3.2 8.0 0.00 0.00 0.00 50 1019.1
20260906121516 -17 201 3.2 4.8 0.00 0.00 0.00 1019.1
20260906120518 19 192 1.6 3.2 0.00 0.00 0.00 51 1019.1
20260906115523 18 157 3.2 6.4 0.00 0.00 0.00 51 1019.1
20260906114522 18 59 4.8 8.0 0.00 0.00 0.00 51 1019.1
20260906113524 19 94 4.8 9.7 0.00 0.00 0.00 51 1019.1
20260906112523 18 200 3.2 4.8 0.00 0.00 0.00 51 1019.1
20260906111525 18 185 3.2 8.0 0.00 0.00 0.00 52 1018.1
20260906110534 18 268 3.2 6.4 0.00 0.00 0.00 53 1018.1
20260906105524 17 23 6.4 14.5 0.00 0.00 0.00 53 1018.1
20260906104523 17 81 4.8 9.7 0.00 0.00 0.00 54 1018.1
20260906103517 17 48 4.8 11.3 0.00 0.00 0.00 54 1018.1
20260906102524 18 212 3.2 6.4 0.00 0.00 0.00 54 1018.1
20260906101524 17 35 4.8 6.4 0.00 0.00 0.00 56 1018.1
20260906100543 17 95 4.8 6.4 0.00 0.00 0.00 57 1018.1
20260906095517 17 217 3.2 4.8 0.00 0.00 0.00 57 1018.1
20260906094544 17 162 3.2 4.8 0.00 0.00 0.00 58 1018.1
20260906093522 16 131 3.2 4.8 0.00 0.00 0.00 60 1018.1
20260906092516 16 131 3.2 8.0 0.00 0.00 0.00 61 1018.1
20260906091526 16 109 4.8 9.7 0.00 0.00 0.00 61 1017.1
20260906090524 16 173 3.2 3.2 0.00 0.00 0.00 61 1017.1
20260906085526 16 152 3.2 6.4 0.00 0.00 0.00 61 1017.1
20260906084522 16 142 1.6 3.2 0.00 0.00 0.00 61 1017.1
20260906083524 16 226 3.2 6.4 0.00 0.00 0.00 62 1017.1
20260906082526 15 183 4.8 8.0 0.00 0.00 0.00 62 1017.1
20260906081549 15 234 1.6 3.2 0.00 0.00 0.00 63 1016.1
20260906080523 15 205 3.2 4.8 0.00 0.00 0.00 64 1016.1
20260906075523 15 187 1.6 3.2 0.00 0.00 0.00 64 1016.1
20260906074523 15 232 1.6 3.2 0.00 0.00 0.00 63 1016.1
20260906073522 15 215 1.6 6.4 0.00 0.00 0.00 63 1016.1
20260906072603 15 202 3.2 4.8 0.00 0.00 0.00 64 1016.1
20260906071523 15 188 3.2 3.2 0.00 0.00 0.00 63 1015.0
20260906070543 15 211 1.6 3.2 0.00 0.00 0.00 63 1015.0
20260906065523 15 225 1.6 4.8 0.00 0.00 0.00 63 1015.0
20260906064545 15 239 1.6 3.2 0.00 0.00 0.00 62 1015.0
20260906063523 15 173 3.2 4.8 0.00 0.00 0.00 62 1015.0
20260906062524 15 228 3.2 6.4 0.00 0.00 0.00 61 1015.0
20260906061539 15 193 3.2 4.8 0.00 0.00 0.00 61 1015.0
20260906060523 15 190 1.6 3.2 0.00 0.00 0.00 62 1015.0
20260906055526 15 239 4.8 6.4 0.00 0.00 0.00 62 1015.0
20260906054518 15 224 3.2 4.8 0.00 0.00 0.00 62 1015.0
20260906053523 15 234 3.2 4.8 0.00 0.00 0.00 62 1015.0
20260906052524 15 223 3.2 4.8 0.00 0.00 0.00 62 1015.0
20260906051516 15 178 3.2 4.8 0.00 0.00 0.00 62 1014.0
20260906050517 15 8 3.2 6.4 0.00 0.00 0.00 63 1014.0
20260906045524 15 221 3.2 3.2 0.00 0.00 0.00 63 1014.0
20260906044525 15 220 3.2 4.8 0.00 0.00 0.00 62 1014.0
20260906043603 15 187 3.2 6.4 0.00 0.00 0.00 62 1014.0
20260906042515 15 186 1.6 4.8 0.00 0.00 0.00 62 1014.0
20260906041544 15 224 1.6 3.2 0.00 0.00 0.00 62 1014.0
20260906040523 15 186 1.6 4.8 0.00 0.00 0.00 62 1014.0
20260906035518 15 212 3.2 3.2 0.00 0.00 0.00 62 1014.0
20260906034516 15 222 1.6 3.2 0.00 0.00 0.00 62 1014.0
20260906033523 15 240 1.6 3.2 0.00 0.00 0.00 62 1014.0
20260906032544 15 224 1.6 3.2 0.00 0.00 0.00 62 1014.0
20260906031523 15 300 3.2 3.2 0.00 0.00 0.00 62 1014.0
20260906030542 15 239 3.2 6.4 0.00 0.00 0.00 63 1014.0
20260906025522 15 231 3.2 4.8 0.00 0.00 0.00 63 1014.0
20260906024517 15 203 3.2 6.4 0.00 0.00 0.00 63 1014.0
20260906023522 15 174 1.6 3.2 0.00 0.00 0.00 64 1014.0
20260906022523 15 221 1.6 3.2 0.00 0.00 0.00 64 1014.0
20260906021523 15 248 1.6 4.8 0.00 0.00 0.00 64 1014.0
20260906020523 15 227 1.6 3.2 0.00 0.00 0.00 65 1014.0
20260906015523 15 195 1.6 3.2 0.00 0.00 0.00 65 1014.0
20260906014541 15 225 1.6 3.2 0.00 0.00 0.00 66 1014.0
20260906013526 15 203 0.0 1.6 0.00 0.00 0.00 66 1014.0
20260906012523 15 225 1.6 1.6 0.00 0.00 0.00 65 1014.0
20260906011523 15 160 1.6 1.6 0.00 0.00 0.00 65 1014.0
20260906010552 15 224 1.6 3.2 0.00 0.00 0.00 65 1014.0
20260906005543 15 222 1.6 3.2 0.00 0.00 0.00 65 1014.0
20260906004517 15 208 1.6 1.6 0.00 0.00 0.00 64 1014.0
20260906003522 15 235 1.6 3.2 0.00 0.00 0.00 64 1014.0
20260906002524 15 225 0.0 1.6 0.00 0.00 0.00 64 1014.0
20260906001516 15 238 3.2 6.4 0.00 0.00 0.00 64 1014.0
20260906000557 -17 23 1.6 1.6 0.00 0.00 0.00 1014.0
20260906000019 15 207 3.2 3.2 0.00 0.00 0.00 64 1014.0
20260905235023 15 243 1.6 3.2 0.00 0.00 0.00 64 1014.0
20260905234023 15 214 1.6 3.2 0.00 0.00 0.00 64 1013.0
20260905233022 15 209 1.6 3.2 0.00 0.00 0.00 64 1013.0
20260905232024 15 176 0.0 1.6 0.00 0.00 0.00 63 1013.0
20260905231018 15 206 1.6 3.2 0.00 0.00 0.00 63 1013.0
20260905230034 15 231 3.2 4.8 0.00 0.00 0.00 62 1013.0
20260905225020 15 209 1.6 1.6 0.00 0.00 0.00 61 1013.0
20260905224024 15 216 3.2 3.2 0.00 0.00 0.00 61 1013.0
20260905223042 15 216 1.6 3.2 0.00 0.00 0.00 60 1013.0
20260905222143 15 203 1.6 3.2 0.00 0.00 0.00 59 1013.0
20260905221023 15 240 1.6 3.2 0.00 0.00 0.00 59 1013.0
20260905220022 15 128 1.6 4.8 0.00 0.00 0.00 59 1013.0
20260905215023 16 234 1.6 3.2 0.00 0.00 0.00 59 1013.0
20260905214037 16 248 1.6 1.6 0.00 0.00 0.00 58 1013.0
20260905213033 16 239 1.6 3.2 0.00 0.00 0.00 57 1013.0
20260905212024 16 210 1.6 1.6 0.00 0.00 0.00 56 1013.0
20260905211023 16 205 1.6 4.8 0.00 0.00 0.00 55 1013.0
20260905210020 16 211 1.6 6.4 0.00 0.00 0.00 54 1012.7
20260905205027 16 220 0.0 1.6 0.00 0.00 0.00 53 1012.0
20260905204023 16 224 0.0 1.6 0.00 0.00 0.00 53 1012.0
20260905203044 16 225 1.6 3.2 0.00 0.00 0.00 53 1012.0
20260905202024 16 200 3.2 4.8 0.00 0.00 0.00 52 1012.0
20260905201023 16 257 1.6 4.8 0.00 0.00 0.00 52 1012.0
20260905200023 16 204 1.6 1.6 0.00 0.00 0.00 53 1012.0
20260905195022 16 58 4.8 8.0 0.00 0.00 0.00 54 1012.0
20260905194022 17 202 1.6 3.2 0.00 0.00 0.00 53 1012.0